contact:dominique.lefevre@mio.osupytheas.fr, maurice.libes@osupytheas.fr, didier.mallarino@osupytheas.fr
Project:EMSO http://www.emso-fr.org/EMSO-France
Depth: 2436.0 m
Title:EMSO Ligure Ouest : Data MII capteur CSTAR
DateTime,Latitude,Longitude,Instrument_Serial,Reference_Counts,Signal_Counts,Corrected_Signal_raw_counts,Calculated_Beam_c_inverse_meters,Internal_thermistor_counts
DateTime,Latitude,Longitude,Instrument_Serial,Reference_Counts,Signal_Counts,Corrected_Signal_raw_counts,Calculated_Beam_c_inverse_meters,Internal_thermistor_counts
2022-09-10T00:01:02,42.805,6.029,CST-1368DR,4615,5151,11886,01.092,551
2022-09-10T00:04:03,42.805,6.029,CST-1368DR,4615,5152,11888,01.091,551
2022-09-10T00:07:05,42.805,6.029,CST-1368DR,4615,5153,11889,01.091,551
2022-09-10T00:10:06,42.805,6.029,CST-1368DR,4615,5151,11885,01.092,551
2022-09-10T00:13:08,42.805,6.029,CST-1368DR,4615,5153,11890,01.090,551
2022-09-10T00:16:09,42.805,6.029,CST-1368DR,4615,5152,11887,01.091,551
2022-09-10T00:19:11,42.805,6.029,CST-1368DR,4615,5151,11884,01.092,551
2022-09-10T00:22:13,42.805,6.029,CST-1368DR,4615,5152,11888,01.091,551
2022-09-10T00:25:14,42.805,6.029,CST-1368DR,4614,5151,11889,01.091,551
2022-09-10T00:28:16,42.805,6.029,CST-1368DR,4614,5152,11890,01.090,551
2022-09-10T00:31:17,42.805,6.029,CST-1368DR,4614,5150,11886,01.092,551
2022-09-10T00:34:19,42.805,6.029,CST-1368DR,4614,5151,11887,01.091,551
2022-09-10T00:37:21,42.805,6.029,CST-1368DR,4614,5150,11886,01.092,551
2022-09-10T00:40:22,42.805,6.029,CST-1368DR,4614,5150,11885,01.092,551
2022-09-10T00:43:24,42.805,6.029,CST-1368DR,4614,5150,11886,01.092,551
2022-09-10T00:46:25,42.805,6.029,CST-1368DR,4614,5150,11886,01.092,551
2022-09-10T00:49:27,42.805,6.029,CST-1368DR,4614,5150,11885,01.092,551
2022-09-10T00:52:28,42.805,6.029,CST-1368DR,4614,5149,11884,01.092,551
2022-09-10T00:55:30,42.805,6.029,CST-1368DR,4613,5149,11886,01.092,551
2022-09-10T00:58:32,42.805,6.029,CST-1368DR,4613,5150,11888,01.091,551
2022-09-10T01:01:33,42.805,6.029,CST-1368DR,4613,5150,11888,01.091,551
2022-09-10T01:04:35,42.805,6.029,CST-1368DR,4613,5150,11889,01.091,551
2022-09-10T01:07:36,42.805,6.029,CST-1368DR,4613,5149,11886,01.092,551
2022-09-10T01:10:38,42.805,6.029,CST-1368DR,4613,5149,11885,01.092,551
2022-09-10T01:13:39,42.805,6.029,CST-1368DR,4613,5151,11889,01.091,551
2022-09-10T01:16:41,42.805,6.029,CST-1368DR,4613,5150,11888,01.091,551
2022-09-10T01:19:43,42.805,6.029,CST-1368DR,4613,5149,11886,01.092,551
2022-09-10T01:22:44,42.805,6.029,CST-1368DR,4613,5148,11882,01.093,551
2022-09-10T01:25:46,42.805,6.029,CST-1368DR,4613,5149,11885,01.092,551
2022-09-10T01:28:47,42.805,6.029,CST-1368DR,4613,5149,11886,01.092,551
2022-09-10T01:31:49,42.805,6.029,CST-1368DR,4612,5149,11888,01.091,551
2022-09-10T01:34:51,42.805,6.029,CST-1368DR,4612,5147,11884,01.092,551
2022-09-10T01:37:52,42.805,6.029,CST-1368DR,4612,5147,11884,01.092,551
2022-09-10T01:40:54,42.805,6.029,CST-1368DR,4612,5147,11884,01.092,551
2022-09-10T01:43:55,42.805,6.029,CST-1368DR,4612,5146,11881,01.093,551
2022-09-10T01:46:57,42.805,6.029,CST-1368DR,4612,5147,11883,01.093,551
2022-09-10T01:49:58,42.805,6.029,CST-1368DR,4612,5147,11884,01.092,551
2022-09-10T01:53:00,42.805,6.029,CST-1368DR,4612,5147,11884,01.092,551
2022-09-10T01:56:02,42.805,6.029,CST-1368DR,4612,5147,11882,01.093,551
2022-09-10T01:59:03,42.805,6.029,CST-1368DR,4612,5145,11880,01.094,551
2022-09-10T02:02:05,42.805,6.029,CST-1368DR,4612,5145,11880,01.094,551
2022-09-10T02:05:06,42.805,6.029,CST-1368DR,4611,5145,11882,01.093,551
2022-09-10T02:08:08,42.805,6.029,CST-1368DR,4612,5146,11880,01.094,551
2022-09-10T02:11:09,42.805,6.029,CST-1368DR,4611,5146,11884,01.092,551
2022-09-10T02:14:11,42.805,6.029,CST-1368DR,4611,5145,11881,01.093,551
2022-09-10T02:17:13,42.805,6.029,CST-1368DR,4611,5146,11883,01.093,551
2022-09-10T02:20:14,42.805,6.029,CST-1368DR,4610,4880,11271,01.304,551
2022-09-10T02:23:16,42.805,6.029,CST-1368DR,4611,5135,11859,01.101,551
2022-09-10T02:26:17,42.805,6.029,CST-1368DR,4611,5135,11857,01.102,551
2022-09-10T02:29:19,42.805,6.029,CST-1368DR,4611,5135,11859,01.101,551
2022-09-10T02:32:21,42.805,6.029,CST-1368DR,4611,5136,11860,01.100,551
2022-09-10T02:35:22,42.805,6.029,CST-1368DR,4611,5134,11856,01.102,551
2022-09-10T02:38:24,42.805,6.029,CST-1368DR,4611,5132,11852,01.103,551
2022-09-10T02:41:25,42.805,6.029,CST-1368DR,4611,5132,11851,01.104,551
2022-09-10T02:44:27,42.805,6.029,CST-1368DR,4610,5131,11852,01.103,551
2022-09-10T02:47:28,42.805,6.029,CST-1368DR,4610,5127,11843,01.106,551
2022-09-10T02:50:30,42.805,6.029,CST-1368DR,4610,5125,11837,01.108,551
2022-09-10T02:53:32,42.805,6.029,CST-1368DR,4610,5132,11854,01.103,551
2022-09-10T02:56:33,42.805,6.029,CST-1368DR,4610,5126,11841,01.107,551
2022-09-10T02:59:35,42.805,6.029,CST-1368DR,4610,5123,11833,01.110,551
2022-09-10T03:02:36,42.805,6.029,CST-1368DR,4610,5121,11827,01.112,551
2022-09-10T03:05:38,42.805,6.029,CST-1368DR,4610,5120,11826,01.112,551
2022-09-10T03:08:39,42.805,6.029,CST-1368DR,4610,5118,11822,01.113,551
2022-09-10T03:11:41,42.805,6.029,CST-1368DR,4610,5118,11822,01.113,551
2022-09-10T03:14:43,42.805,6.029,CST-1368DR,4610,5123,11834,01.109,551
2022-09-10T03:17:44,42.805,6.029,CST-1368DR,4610,5119,11823,01.113,551
2022-09-10T03:20:46,42.805,6.029,CST-1368DR,4609,5116,11820,01.114,551
2022-09-10T03:23:47,42.805,6.029,CST-1368DR,4609,5114,11815,01.116,551
2022-09-10T03:26:49,42.805,6.029,CST-1368DR,4609,5115,11817,01.115,551
2022-09-10T03:29:51,42.805,6.029,CST-1368DR,4609,5111,11808,01.118,551
2022-09-10T03:32:52,42.805,6.029,CST-1368DR,4609,5112,11810,01.117,551
2022-09-10T03:35:54,42.805,6.029,CST-1368DR,4609,5114,11815,01.116,551
2022-09-10T03:38:55,42.805,6.029,CST-1368DR,4609,5112,11811,01.117,551
2022-09-10T03:41:57,42.805,6.029,CST-1368DR,4609,5110,11806,01.119,551
2022-09-10T03:44:58,42.805,6.029,CST-1368DR,4609,5112,11810,01.117,551
2022-09-10T03:48:00,42.805,6.029,CST-1368DR,4609,5110,11805,01.119,551
2022-09-10T03:51:02,42.805,6.029,CST-1368DR,4609,5111,11808,01.118,551
2022-09-10T03:54:03,42.805,6.029,CST-1368DR,4609,5110,11805,01.119,551
2022-09-10T03:57:05,42.805,6.029,CST-1368DR,4609,5112,11809,01.118,551
2022-09-10T04:00:06,42.805,6.029,CST-1368DR,4609,5111,11807,01.118,551
2022-09-10T04:03:08,42.805,6.029,CST-1368DR,4609,5112,11810,01.117,551
2022-09-10T04:06:10,42.805,6.029,CST-1368DR,4608,5110,11808,01.118,551
2022-09-10T04:09:11,42.805,6.029,CST-1368DR,4608,5113,11816,01.115,551
2022-09-10T04:12:13,42.805,6.029,CST-1368DR,4608,5110,11807,01.118,551
2022-09-10T04:15:14,42.805,6.029,CST-1368DR,4608,5112,11811,01.117,551
2022-09-10T04:18:16,42.805,6.029,CST-1368DR,4608,5111,11811,01.117,551
2022-09-10T04:21:17,42.805,6.029,CST-1368DR,4608,5110,11809,01.118,551
2022-09-10T04:24:19,42.805,6.029,CST-1368DR,4608,5109,11805,01.119,551
2022-09-10T04:27:21,42.805,6.029,CST-1368DR,4608,5110,11809,01.118,551
2022-09-10T04:30:22,42.805,6.029,CST-1368DR,4608,5111,11810,01.117,551
2022-09-10T04:33:24,42.805,6.029,CST-1368DR,4608,5110,11809,01.118,551
2022-09-10T04:36:25,42.805,6.029,CST-1368DR,4608,5110,11807,01.118,551
2022-09-10T04:39:27,42.805,6.029,CST-1368DR,4608,5110,11808,01.118,551
2022-09-10T04:42:28,42.805,6.029,CST-1368DR,4608,5112,11813,01.116,551
2022-09-10T04:45:30,42.805,6.029,CST-1368DR,4608,5108,11804,01.119,551
2022-09-10T04:48:32,42.805,6.029,CST-1368DR,4608,5112,11813,01.116,551
2022-09-10T04:51:33,42.805,6.029,CST-1368DR,4608,5112,11813,01.116,551
2022-09-10T04:54:35,42.805,6.029,CST-1368DR,4608,5109,11805,01.119,551
2022-09-10T04:57:36,42.805,6.029,CST-1368DR,4607,5109,11808,01.118,551
2022-09-10T05:00:38,42.805,6.029,CST-1368DR,4608,5114,11817,01.115,551
2022-09-10T05:03:40,42.805,6.029,CST-1368DR,4607,5109,11808,01.118,551
2022-09-10T05:06:41,42.805,6.029,CST-1368DR,4607,5108,11805,01.119,551
2022-09-10T05:09:43,42.805,6.029,CST-1368DR,4607,5110,11809,01.118,551
2022-09-10T05:12:44,42.805,6.029,CST-1368DR,4607,5109,11807,01.118,551
2022-09-10T05:15:46,42.805,6.029,CST-1368DR,4607,5111,11812,01.117,551
2022-09-10T05:18:47,42.805,6.029,CST-1368DR,4607,5108,11806,01.119,551
2022-09-10T05:21:49,42.805,6.029,CST-1368DR,4607,5108,11806,01.119,551
2022-09-10T05:24:51,42.805,6.029,CST-1368DR,4607,5108,11806,01.119,551
2022-09-10T05:27:52,42.805,6.029,CST-1368DR,4607,5108,11805,01.119,551
2022-09-10T05:30:54,42.805,6.029,CST-1368DR,4607,5112,11816,01.115,551
2022-09-10T05:33:55,42.805,6.029,CST-1368DR,4607,5113,11817,01.115,551
2022-09-10T05:36:57,42.805,6.029,CST-1368DR,4607,5113,11818,01.115,551
2022-09-10T05:39:58,42.805,6.029,CST-1368DR,4607,5124,11843,01.106,551
2022-09-10T05:43:00,42.805,6.029,CST-1368DR,4607,5122,11838,01.108,551
2022-09-10T05:46:02,42.805,6.029,CST-1368DR,4607,5127,11849,01.104,551
2022-09-10T05:49:03,42.805,6.029,CST-1368DR,4607,5116,11824,01.113,551
2022-09-10T05:52:05,42.805,6.029,CST-1368DR,4607,5121,11835,01.109,551
2022-09-10T05:55:06,42.805,6.029,CST-1368DR,4607,5123,11841,01.107,551
2022-09-10T05:58:08,42.805,6.029,CST-1368DR,4607,5125,11844,01.106,551
2022-09-10T06:01:10,42.805,6.029,CST-1368DR,4607,5128,11851,01.104,551
2022-09-10T06:04:11,42.805,6.029,CST-1368DR,4607,5128,11851,01.104,551
2022-09-10T06:07:13,42.805,6.029,CST-1368DR,4606,5122,11841,01.107,551
2022-09-10T06:10:14,42.805,6.029,CST-1368DR,4606,5127,11853,01.103,551
2022-09-10T06:13:16,42.805,6.029,CST-1368DR,4606,5120,11835,01.109,551
2022-09-10T06:16:17,42.805,6.029,CST-1368DR,4606,5123,11844,01.106,551
2022-09-10T06:19:19,42.805,6.029,CST-1368DR,4606,5125,11848,01.105,551
2022-09-10T06:22:21,42.805,6.029,CST-1368DR,4606,5123,11842,01.107,551
2022-09-10T06:25:22,42.805,6.029,CST-1368DR,4606,5123,11842,01.107,551
2022-09-10T06:28:24,42.805,6.029,CST-1368DR,4606,5123,11844,01.106,551
2022-09-10T06:31:25,42.805,6.029,CST-1368DR,4606,5121,11838,01.108,551
2022-09-10T06:34:27,42.805,6.029,CST-1368DR,4606,5122,11841,01.107,551
2022-09-10T06:37:29,42.805,6.029,CST-1368DR,4606,5117,11830,01.111,551
2022-09-10T06:40:30,42.805,6.029,CST-1368DR,4606,5125,11846,01.105,551
2022-09-10T06:43:32,42.805,6.029,CST-1368DR,4606,5123,11844,01.106,551
2022-09-10T06:46:33,42.805,6.029,CST-1368DR,4606,5125,11848,01.105,551
2022-09-10T06:49:35,42.805,6.029,CST-1368DR,4606,5117,11830,01.111,551
2022-09-10T06:52:36,42.805,6.029,CST-1368DR,4606,5118,11831,01.110,551
2022-09-10T06:55:38,42.805,6.029,CST-1368DR,4606,5124,11845,01.106,551
2022-09-10T06:58:40,42.805,6.029,CST-1368DR,4606,5117,11828,01.111,551
2022-09-10T07:01:41,42.805,6.029,CST-1368DR,4606,5113,11820,01.114,551
2022-09-10T07:04:43,42.805,6.029,CST-1368DR,4606,5123,11842,01.107,551
2022-09-10T07:07:44,42.805,6.029,CST-1368DR,4605,5115,11827,01.112,551
2022-09-10T07:10:46,42.805,6.029,CST-1368DR,4606,5122,11839,01.108,551
2022-09-10T07:13:47,42.805,6.029,CST-1368DR,4605,5122,11844,01.106,551
2022-09-10T07:16:49,42.805,6.029,CST-1368DR,4605,5115,11826,01.112,551
2022-09-10T07:19:51,42.805,6.029,CST-1368DR,4605,5123,11845,01.106,551
2022-09-10T07:22:52,42.805,6.029,CST-1368DR,4605,5115,11827,01.112,551
2022-09-10T07:25:54,42.805,6.029,CST-1368DR,4605,5114,11823,01.113,551
2022-09-10T07:28:55,42.805,6.029,CST-1368DR,4605,5125,11849,01.104,551
2022-09-10T07:31:57,42.805,6.029,CST-1368DR,4605,5117,11832,01.110,551
2022-09-10T07:34:59,42.805,6.029,CST-1368DR,4605,5126,11852,01.103,551
2022-09-10T07:38:00,42.805,6.029,CST-1368DR,4605,5120,11837,01.108,551
2022-09-10T07:41:02,42.805,6.029,CST-1368DR,4605,5115,11826,01.112,551
2022-09-10T07:44:03,42.805,6.029,CST-1368DR,4605,5123,11845,01.106,551
2022-09-10T07:47:05,42.805,6.029,CST-1368DR,4605,5121,11841,01.107,551
2022-09-10T07:50:06,42.805,6.029,CST-1368DR,4605,5119,11836,01.109,551
2022-09-10T07:53:08,42.805,6.029,CST-1368DR,4605,5121,11840,01.107,551
2022-09-10T07:56:10,42.805,6.029,CST-1368DR,4605,5113,11823,01.113,551
2022-09-10T07:59:11,42.805,6.029,CST-1368DR,4605,5122,11844,01.106,551
2022-09-10T08:02:13,42.805,6.029,CST-1368DR,4605,5119,11835,01.109,551
2022-09-10T08:05:14,42.805,6.029,CST-1368DR,4605,5114,11824,01.113,551
2022-09-10T08:08:16,42.805,6.029,CST-1368DR,4605,5123,11846,01.105,551
2022-09-10T08:11:17,42.805,6.029,CST-1368DR,4605,5115,11826,01.112,551
2022-09-10T08:14:19,42.805,6.029,CST-1368DR,4604,5113,11825,01.112,551
2022-09-10T08:17:21,42.805,6.029,CST-1368DR,4604,5121,11843,01.106,551
2022-09-10T08:20:22,42.805,6.029,CST-1368DR,4604,5116,11831,01.110,551
2022-09-10T08:23:24,42.805,6.029,CST-1368DR,4604,5111,11819,01.114,551
2022-09-10T08:26:25,42.805,6.029,CST-1368DR,4604,5111,11820,01.114,551
2022-09-10T08:29:27,42.805,6.029,CST-1368DR,4604,5110,11817,01.115,551
2022-09-10T08:32:29,42.805,6.029,CST-1368DR,4604,5113,11825,01.112,551
2022-09-10T08:35:30,42.805,6.029,CST-1368DR,4604,5109,11814,01.116,551
2022-09-10T08:38:32,42.805,6.029,CST-1368DR,4604,5110,11817,01.115,551
2022-09-10T08:41:33,42.805,6.029,CST-1368DR,4604,5112,11822,01.113,551
2022-09-10T08:44:35,42.805,6.029,CST-1368DR,4604,5105,11806,01.119,551
2022-09-10T08:47:36,42.805,6.029,CST-1368DR,4604,5108,11813,01.116,551
2022-09-10T08:50:38,42.805,6.029,CST-1368DR,4604,5108,11814,01.116,551
2022-09-10T08:53:40,42.805,6.029,CST-1368DR,4604,5105,11806,01.119,551
2022-09-10T08:56:41,42.805,6.029,CST-1368DR,4604,5111,11819,01.114,551
2022-09-10T08:59:43,42.805,6.029,CST-1368DR,4604,5114,11828,01.111,551
2022-09-10T09:02:44,42.805,6.029,CST-1368DR,4604,5111,11819,01.114,551
2022-09-10T09:05:46,42.805,6.029,CST-1368DR,4604,5122,11846,01.105,551
2022-09-10T09:08:48,42.805,6.029,CST-1368DR,4604,5113,11824,01.113,551
2022-09-10T09:11:49,42.805,6.029,CST-1368DR,4604,5110,11818,01.115,551
2022-09-10T09:14:51,42.805,6.029,CST-1368DR,4604,5107,11811,01.117,551
2022-09-10T09:17:52,42.805,6.029,CST-1368DR,4604,5112,11823,01.113,551
2022-09-10T09:20:54,42.805,6.029,CST-1368DR,4604,5113,11824,01.113,551
2022-09-10T09:23:55,42.805,6.029,CST-1368DR,4604,5110,11817,01.115,551
2022-09-10T09:26:57,42.805,6.029,CST-1368DR,4603,5113,11827,01.112,551
2022-09-10T09:29:59,42.805,6.029,CST-1368DR,4603,5112,11825,01.112,551
2022-09-10T09:33:00,42.805,6.029,CST-1368DR,4603,5112,11824,01.113,551
2022-09-10T09:36:02,42.805,6.029,CST-1368DR,4603,5112,11824,01.113,551
2022-09-10T09:39:03,42.805,6.029,CST-1368DR,4603,5110,11820,01.114,551
2022-09-10T09:42:05,42.805,6.029,CST-1368DR,4603,5107,11813,01.116,551
2022-09-10T09:45:06,42.805,6.029,CST-1368DR,4603,5111,11823,01.113,551
2022-09-10T09:48:08,42.805,6.029,CST-1368DR,4603,5111,11823,01.113,551
2022-09-10T09:51:10,42.805,6.029,CST-1368DR,4603,5108,11815,01.116,551
2022-09-10T09:54:11,42.805,6.029,CST-1368DR,4603,5114,11830,01.111,551
2022-09-10T09:57:13,42.805,6.029,CST-1368DR,4603,5109,11817,01.115,551
2022-09-10T10:00:14,42.805,6.029,CST-1368DR,4603,5107,11813,01.116,551
2022-09-10T10:03:16,42.805,6.029,CST-1368DR,4603,5109,11817,01.115,551
2022-09-10T10:06:18,42.805,6.029,CST-1368DR,4603,5111,11822,01.113,551
2022-09-10T10:09:19,42.805,6.029,CST-1368DR,4603,5107,11814,01.116,551
2022-09-10T10:12:21,42.805,6.029,CST-1368DR,4603,5110,11820,01.114,551
2022-09-10T10:15:22,42.805,6.029,CST-1368DR,4603,5103,11804,01.119,551
2022-09-10T10:18:24,42.805,6.029,CST-1368DR,4603,5108,11816,01.115,551
2022-09-10T10:21:25,42.805,6.029,CST-1368DR,4603,5108,11815,01.116,551
2022-09-10T10:24:27,42.805,6.029,CST-1368DR,4603,5107,11812,01.117,551
2022-09-10T10:27:29,42.805,6.029,CST-1368DR,4603,5107,11813,01.116,551
2022-09-10T10:30:30,42.805,6.029,CST-1368DR,4603,5104,11806,01.119,551
2022-09-10T10:33:32,42.805,6.029,CST-1368DR,4603,5109,11817,01.115,551
2022-09-10T10:36:33,42.805,6.029,CST-1368DR,4603,5108,11814,01.116,551
2022-09-10T10:39:35,42.805,6.029,CST-1368DR,4603,5108,11816,01.115,551
2022-09-10T10:42:37,42.805,6.029,CST-1368DR,4603,5110,11820,01.114,551
2022-09-10T10:45:38,42.805,6.029,CST-1368DR,4603,5126,11856,01.102,551
2022-09-10T10:48:40,42.805,6.029,CST-1368DR,4603,5114,11828,01.111,551
2022-09-10T10:51:41,42.805,6.029,CST-1368DR,4603,5113,11827,01.112,551
2022-09-10T10:54:43,42.805,6.029,CST-1368DR,4602,5104,11809,01.118,551
2022-09-10T10:57:44,42.805,6.029,CST-1368DR,4602,5114,11832,01.110,551
2022-09-10T11:00:46,42.805,6.029,CST-1368DR,4602,5115,11833,01.110,551
2022-09-10T11:03:48,42.805,6.029,CST-1368DR,4602,5108,11819,01.114,551
2022-09-10T11:06:49,42.805,6.029,CST-1368DR,4602,5109,11819,01.114,551
2022-09-10T11:09:51,42.805,6.029,CST-1368DR,4602,5108,11818,01.115,551
2022-09-10T11:12:52,42.805,6.029,CST-1368DR,4602,5108,11819,01.114,551
2022-09-10T11:15:54,42.805,6.029,CST-1368DR,4602,5105,11811,01.117,551
2022-09-10T11:18:55,42.805,6.029,CST-1368DR,4602,5108,11819,01.114,551
2022-09-10T11:21:57,42.805,6.029,CST-1368DR,4602,5109,11819,01.114,551
2022-09-10T11:24:59,42.805,6.029,CST-1368DR,4602,5108,11819,01.114,551
2022-09-10T11:28:00,42.805,6.029,CST-1368DR,4602,5109,11819,01.114,551
2022-09-10T11:31:02,42.805,6.029,CST-1368DR,4602,5107,11815,01.116,551
2022-09-10T11:34:03,42.805,6.029,CST-1368DR,4602,5101,11801,01.120,551
2022-09-10T11:37:05,42.805,6.029,CST-1368DR,4602,5109,11821,01.114,551
2022-09-10T11:40:07,42.805,6.029,CST-1368DR,4602,5110,11823,01.113,551
2022-09-10T11:43:08,42.805,6.029,CST-1368DR,4602,5108,11818,01.115,551
2022-09-10T11:46:10,42.805,6.029,CST-1368DR,4602,5111,11824,01.113,551
2022-09-10T11:49:11,42.805,6.029,CST-1368DR,4602,5111,11824,01.113,551
2022-09-10T11:52:13,42.805,6.029,CST-1368DR,4602,5112,11827,01.112,551
2022-09-10T11:55:14,42.805,6.029,CST-1368DR,4602,5107,11816,01.115,551
2022-09-10T11:58:16,42.805,6.029,CST-1368DR,4602,5106,11814,01.116,551
2022-09-10T12:01:18,42.805,6.029,CST-1368DR,4602,5111,11825,01.112,551
2022-09-10T12:04:19,42.805,6.029,CST-1368DR,4602,5110,11822,01.113,551
2022-09-10T12:07:21,42.805,6.029,CST-1368DR,4602,5105,11812,01.117,551
2022-09-10T12:10:22,42.805,6.029,CST-1368DR,4602,5109,11820,01.114,551
2022-09-10T12:13:24,42.805,6.029,CST-1368DR,4602,5109,11821,01.114,551
2022-09-10T12:16:26,42.805,6.029,CST-1368DR,4602,5108,11817,01.115,551
2022-09-10T12:19:27,42.805,6.029,CST-1368DR,4602,5110,11823,01.113,551
2022-09-10T12:22:29,42.805,6.029,CST-1368DR,4602,5110,11822,01.113,551
2022-09-10T12:25:30,42.805,6.029,CST-1368DR,4602,5107,11816,01.115,551
2022-09-10T12:28:32,42.805,6.029,CST-1368DR,4602,5106,11812,01.117,551
2022-09-10T12:31:33,42.805,6.029,CST-1368DR,4602,5107,11816,01.115,551
2022-09-10T12:34:35,42.805,6.029,CST-1368DR,4602,5107,11815,01.116,551
2022-09-10T12:37:37,42.805,6.029,CST-1368DR,4602,5106,11814,01.116,551
2022-09-10T12:40:38,42.805,6.029,CST-1368DR,4602,5105,11811,01.117,551
2022-09-10T12:43:40,42.805,6.029,CST-1368DR,4602,5105,11812,01.117,551
2022-09-10T12:46:41,42.805,6.029,CST-1368DR,4602,5104,11809,01.118,551
2022-09-10T12:49:43,42.805,6.029,CST-1368DR,4602,5106,11812,01.117,551
2022-09-10T12:52:44,42.805,6.029,CST-1368DR,4602,5106,11812,01.117,551
2022-09-10T12:55:46,42.805,6.029,CST-1368DR,4602,5105,11812,01.117,551
2022-09-10T12:58:48,42.805,6.029,CST-1368DR,4601,5105,11814,01.116,551
2022-09-10T13:01:49,42.805,6.029,CST-1368DR,4602,5103,11807,01.118,551
2022-09-10T13:04:51,42.805,6.029,CST-1368DR,4601,5102,11807,01.118,551
2022-09-10T13:07:52,42.805,6.029,CST-1368DR,4601,5105,11814,01.116,551
2022-09-10T13:10:54,42.805,6.029,CST-1368DR,4601,5105,11813,01.116,551
2022-09-10T13:13:56,42.805,6.029,CST-1368DR,4601,5104,11811,01.117,551
2022-09-10T13:16:57,42.805,6.029,CST-1368DR,4601,5101,11804,01.119,551
2022-09-10T13:19:59,42.805,6.029,CST-1368DR,4601,5104,11810,01.117,551
2022-09-10T13:23:00,42.805,6.029,CST-1368DR,4601,5105,11812,01.117,551
2022-09-10T13:26:02,42.805,6.029,CST-1368DR,4601,5104,11811,01.117,551
2022-09-10T13:29:03,42.805,6.029,CST-1368DR,4601,5105,11812,01.117,551
2022-09-10T13:32:05,42.805,6.029,CST-1368DR,4601,5105,11812,01.117,551
2022-09-10T13:35:07,42.805,6.029,CST-1368DR,4601,5103,11809,01.118,551
2022-09-10T13:38:08,42.805,6.029,CST-1368DR,4601,5106,11815,01.116,551
2022-09-10T13:41:10,42.805,6.029,CST-1368DR,4601,5104,11812,01.117,551
2022-09-10T13:44:11,42.805,6.029,CST-1368DR,4601,5105,11812,01.117,551
2022-09-10T13:47:13,42.805,6.029,CST-1368DR,4601,5106,11815,01.116,551
2022-09-10T13:50:15,42.805,6.029,CST-1368DR,4601,5105,11813,01.116,551
2022-09-10T13:53:16,42.805,6.029,CST-1368DR,4601,5107,11818,01.115,551
2022-09-10T13:56:18,42.805,6.029,CST-1368DR,4601,5107,11817,01.115,551
2022-09-10T13:59:19,42.805,6.029,CST-1368DR,4601,5108,11821,01.114,551
2022-09-10T14:02:21,42.805,6.029,CST-1368DR,4601,5108,11821,01.114,551
2022-09-10T14:05:22,42.805,6.029,CST-1368DR,4601,5107,11818,01.115,551
2022-09-10T14:08:24,42.805,6.029,CST-1368DR,4601,5103,11808,01.118,551
2022-09-10T14:11:26,42.805,6.029,CST-1368DR,4601,5103,11810,01.117,551
2022-09-10T14:14:27,42.805,6.029,CST-1368DR,4601,5104,11811,01.117,551
2022-09-10T14:17:29,42.805,6.029,CST-1368DR,4601,5103,11809,01.118,551
2022-09-10T14:20:30,42.805,6.029,CST-1368DR,4601,5105,11812,01.117,551
2022-09-10T14:23:32,42.805,6.029,CST-1368DR,4601,5103,11808,01.118,551
2022-09-10T14:26:33,42.805,6.029,CST-1368DR,4601,5104,11812,01.117,551
2022-09-10T14:29:35,42.805,6.029,CST-1368DR,4601,5105,11812,01.117,551
2022-09-10T14:32:37,42.805,6.029,CST-1368DR,4601,5105,11814,01.116,551
2022-09-10T14:35:38,42.805,6.029,CST-1368DR,4601,5104,11811,01.117,551
2022-09-10T14:38:40,42.805,6.029,CST-1368DR,4601,5105,11813,01.116,551
2022-09-10T14:41:41,42.805,6.029,CST-1368DR,4601,5105,11814,01.116,551
2022-09-10T14:44:43,42.805,6.029,CST-1368DR,4601,5105,11812,01.117,551
2022-09-10T14:47:45,42.805,6.029,CST-1368DR,4601,5105,11812,01.117,551
2022-09-10T14:50:46,42.805,6.029,CST-1368DR,4601,5104,11810,01.117,551
2022-09-10T14:53:48,42.805,6.029,CST-1368DR,4601,5104,11810,01.117,551
2022-09-10T14:56:49,42.805,6.029,CST-1368DR,4601,5104,11811,01.117,551
2022-09-10T14:59:51,42.805,6.029,CST-1368DR,4601,5105,11814,01.116,551
2022-09-10T15:02:52,42.805,6.029,CST-1368DR,4601,5104,11812,01.117,551
2022-09-10T15:05:54,42.805,6.029,CST-1368DR,4601,5105,11812,01.117,551
2022-09-10T15:08:56,42.805,6.029,CST-1368DR,4601,5104,11811,01.117,551
2022-09-10T15:11:57,42.805,6.029,CST-1368DR,4601,5104,11811,01.117,551
2022-09-10T15:14:59,42.805,6.029,CST-1368DR,4600,5105,11816,01.115,551
2022-09-10T15:18:00,42.805,6.029,CST-1368DR,4600,5105,11816,01.115,551
2022-09-10T15:21:02,42.805,6.029,CST-1368DR,4600,5106,11818,01.115,551
2022-09-10T15:24:03,42.805,6.029,CST-1368DR,4600,5104,11813,01.116,551
2022-09-10T15:27:05,42.805,6.029,CST-1368DR,4600,5106,11819,01.114,551
2022-09-10T15:30:07,42.805,6.029,CST-1368DR,4600,5107,11821,01.114,551
2022-09-10T15:33:08,42.805,6.029,CST-1368DR,4600,5106,11817,01.115,551
2022-09-10T15:36:10,42.805,6.029,CST-1368DR,4600,5106,11817,01.115,551
2022-09-10T15:39:11,42.805,6.029,CST-1368DR,4600,5106,11817,01.115,551
2022-09-10T15:42:13,42.805,6.029,CST-1368DR,4600,5105,11817,01.115,551
2022-09-10T15:45:15,42.805,6.029,CST-1368DR,4600,5105,11817,01.115,551
2022-09-10T15:48:16,42.805,6.029,CST-1368DR,4600,5105,11815,01.116,551
2022-09-10T15:51:18,42.805,6.029,CST-1368DR,4600,5103,11811,01.117,551
2022-09-10T15:54:19,42.805,6.029,CST-1368DR,4600,5104,11814,01.116,551
2022-09-10T15:57:21,42.805,6.029,CST-1368DR,4600,5106,11817,01.115,551
2022-09-10T16:00:22,42.805,6.029,CST-1368DR,4600,5104,11813,01.116,551
2022-09-10T16:03:24,42.805,6.029,CST-1368DR,4600,5103,11812,01.117,551
2022-09-10T16:06:26,42.805,6.029,CST-1368DR,4600,5103,11812,01.117,551
2022-09-10T16:09:27,42.805,6.029,CST-1368DR,4600,5103,11811,01.117,551
2022-09-10T16:12:29,42.805,6.029,CST-1368DR,4600,5103,11811,01.117,551
2022-09-10T16:15:30,42.805,6.029,CST-1368DR,4600,5102,11809,01.118,551
2022-09-10T16:18:32,42.805,6.029,CST-1368DR,4600,5093,11789,01.125,551
2022-09-10T16:21:34,42.805,6.029,CST-1368DR,4600,5102,11808,01.118,551
2022-09-10T16:24:35,42.805,6.029,CST-1368DR,4600,5101,11807,01.118,551
2022-09-10T16:27:37,42.805,6.029,CST-1368DR,4600,5102,11808,01.118,551
2022-09-10T16:30:38,42.805,6.029,CST-1368DR,4600,5100,11803,01.120,551
2022-09-10T16:33:40,42.805,6.029,CST-1368DR,4600,5099,11801,01.120,551
2022-09-10T16:36:41,42.805,6.029,CST-1368DR,4600,5097,11798,01.121,551